Showing default

EUTE 36B (EUTE W7), 36101

Orbit data source: Space-Track

EUTE 36B (EUTE W7), 36101 is a payload satellite owned by EutelsatSA (FR) in GEO that was launched on Tue, 24 Nov 2009 UTC via a PROTON-M/BRIZ-M launch vehicle from the Tyuratam Missile And Space Complex (TTMTR). Payload-class satellites include a variety of spacecraft equipped with specific instruments for various scientific and technological missions. These include communications satellites like Starlink; space stations such as the ISS; scientific satellites like the Hubble; Earth observation satellites from companies like Planet Labs, Umbra, and HawkEye 360; GPS; miniature CubeSats for education and research; and military/defense satellites.

Not visible in the next 10 days
Identifier
36101, 2009-065A
Orbit
GEO
Last TLE update
12 hours ago
Origin
Manufacturer
Thales Alenia
Mission
Operational Commercial Communications
Bus & Motor
SPACEBUS 4000C4, S400
Mass
5,627 kg wet, ~2,800 kg dry
Launch date (UTC)
2009-11-24 (16 years ago)
Launch vehicle
PROTON-M/BRIZ-M
Launch site
Tyuratam Missile And Space Complex (TTMTR)
Object type
Payload
Rocket body
Debris
Shape & HBR
Box + 2 Pan + 1 Dish, 34 m
Radar Cross Section
44.769 m², Large (>1 m²)

Expand to show TLE details & history

TLE from 12 hours ago
0 EUTE 36B (EUTE W7)
1 36101U 09065A   25189.82837634  .00000128  00000-0  00000-0 0  9998
2 36101   0.0500 359.1647 0005823 107.4486 169.0986  1.00271130 57265
Epoch: 2025-07-08T19:52Z
TLE epoch observation values (Epoch: 2025-07-08T19:52:51.715Z)
Latitude
-0.07455°
Longitude
50.4929°
Altitude
35,810.517 km
Speed
3.073 km/s
True Right ascension
18h 22m 54s
True Declination
0° 04' 28"
Sunlit
Object was in daylight at epoch
Visualization orbit readout
Latitude
0.07445°
Longitude
-127.93774°
Altitude
35,761.844 km
Speed
3.076 km/s
Apparent Right ascension
06h 39m 07s
Apparent Declination
-4° 55' 16"
Sunlit
Object is in daylight
Visualization observer readout
Local Sidereal Time
20:06:49
Azimuth
35.205° NE
Elevation
-49.812°
Doppler factor
1
Orbital elements
Apogee altitude
35,812.402 km
Perigee altitude
35,763.296 km
Semi-major axis
42,165.986 km
Eccentricity
0.00058
Inclination
0.05°
RAAN
359.1647°
Arg. of periapsis
107.4486°
True anomaly
Unknown
Mean anomaly
169.0986°
Eccentric anomaly
Unknown
Mean motion
0.25067 °/min
Orbital period
1,436.16 mins
BSTAR
0
Loading historical data...
36101 neighbors
Loading maneuver chart data...
Loading SW <> Apogee altitude chart data...
Loading historical data...
Loading historical data...
Loading historical data...
Loading historical data...
Loading historical data...
Loading historical data...
Loading historical data...
Other satellites on launch #65 in the year 2009 (2009-11-24 UTC)

EUTE 36B (EUTE W7) Visibility

Observer location: undefined°, undefined°

EUTE 36B (EUTE W7) is likely not visible in the next few days
Span
Click to sort rows by Start time (UTC) header in descending order
Start Az.
Max El. time (UTC)
Max El. Az.
Max El.
End time (UTC)
End Az.
|